Preview of NWS' New Version of Forecast
This preview is not operational and should not be used for support decisions.

Regional Weather Roundup (RWR)

Issued by National Weather Service (NWS)

                            
000
ASUS46 KPQR 170910
RWROR 

OREGON REGIONAL WEATHER ROUNDUP
NATIONAL WEATHER SERVICE PORTLAND OR
200 AM PDT MON JUN 17 2019

NOTE: "FAIR" INDICATES FEW OR NO CLOUDS BELOW 12,000 FEET WITH
NO SIGNIFICANT WEATHER AND/OR OBSTRUCTIONS TO VISIBILITY.

ORZ001>013-171000-
NORTHWEST OREGON

  
CITY           SKY/WX    TMP DP  RH WIND       PRES   REMARKS
ASTORIA        CLOUDY    55  53  93 W5        30.12R                  
TILLAMOOK      CLOUDY    55  52  88 CALM      30.13S                  
NEWPORT        FOG       50  50 100 N5        30.15R VSB 1/2          
PORTLAND       PTCLDY    59  51  75 NW6       30.08R                  
VANCOUVER WA   CLEAR     59  52  77 NW6       30.07R                  
SCAPPOOSE      CLEAR     55  51  86 CALM      30.07R                  
HILLSBORO      CLEAR     56  50  80 NW5       30.07S                  
AURORA         CLEAR     59  51  75 NW8       30.08R                  
MCMINNVILLE    CLEAR     55  51  86 CALM      30.07R                  
SALEM          CLEAR     58  51  78 N5        30.07R                  
CORVALLIS      CLEAR     58  52  80 NW8       30.08R                  
EUGENE         CLEAR     56  51  84 CALM      30.07S                  
$$

ORZ021-028-171000-
SOUTHWEST OREGON

  
CITY           SKY/WX    TMP DP  RH WIND       PRES   REMARKS
NORTH BEND     CLOUDY    53  52  96 N6        30.13R                  
BROOKINGS      CLEAR     52  50  93 CALM      29.97S                  
ROSEBURG       CLEAR     64  49  57 CALM      30.05R                  
SEXTON SUMMIT  CLEAR     55  47  74 N10G21    30.09R                  
GRANTS PASS    FAIR      66  48  52 NW7       30.04R                  
MEDFORD        CLEAR     65  44  46 CALM      30.01R                  
$$

ORZ014>016-041-171000-
COLUMBIA GORGE

  
CITY           SKY/WX    TMP DP  RH WIND       PRES   REMARKS
TROUTDALE      CLEAR     59  53  80 CALM      30.07R                  
HOOD RIVER     PTCLDY    63  52  67 CALM      29.98S                  
THE DALLES     MOCLDY    66  53  63 NW17      29.92R                  
$$

ORZ029>031-041-044-049-050-061>064-502-503-505>511-171000-
EASTERN OREGON

  
CITY           SKY/WX    TMP DP  RH WIND       PRES   REMARKS
MADRAS         MOCLDY    54  45  71 E3        30.05S                  
REDMOND        PTCLDY    50  38  63 CALM      30.05S                  
BEND           PTCLDY    54  41  62 S5        30.06S                  
PRINEVILLE     PTCLDY    46  36  66 S3        30.05S                  
KLAMATH FALLS  PTCLDY    57  45  64 NW5       30.05R                  
LAKEVIEW       CLEAR     58  40  51 N15       30.07S                  
HERMISTON      MOCLDY    70  51  51 SW15      29.89R                  
PENDLETON      PTCLDY    66  48  52 SE3       29.93R                  
JOHN DAY       PTCLDY    59  38  45 W6        30.03S                  
MEACHAM        PTCLDY    50  44  80 CALM      30.03S                  
LA GRANDE      MOCLDY    62  46  55 NW12      29.97R                  
BAKER CITY     PTCLDY    56  46  69 SW6       29.98F                  
BURNS          CLEAR     57  39  51 NW12      30.02S                  
ROME             N/A     58  40  51 E7        29.97S                  
ONTARIO        CLEAR     70  48  45 W6        29.89R                  
$$